Regional Weather Roundup
Issued by NWS

Home | Current Version | Previous Version | Text Only | Print | Product List | Glossary On
Versions: 1 2 3 4 5 6 7 8 9 10 11 12 13 14 15 16 17 18 19 20 21 22 23 24 25 26 27 28 29 30 31 32 33 34 35 36 37 38 39 40 41 42 43 44 45 46 47 48 49 50
000
ASUS43 KMKX 050700
RWRWI

WISCONSIN REGIONAL WEATHER ROUNDUP
NATIONAL WEATHER SERVICE MILWAUKEE/SULLIVAN WI
200 AM CDT THU MAY 05 2016

NOTE: "FAIR" INDICATES FEW OR NO CLOUDS BELOW 12,000 FEET WITH NO
SIGNIFICANT WEATHER AND/OR OBSTRUCTIONS TO VISIBILITY.

WIZ001-002-006>008-014>016-023>028-050800-
NORTHWEST WISCONSIN

CITY           SKY/WX    TMP DP  RH WIND       PRES   REMARKS
SUPERIOR ARPT  CLEAR     32  31  97 CALM      30.03R
ASHLAND        CLEAR     29  29 100 NW5       30.03R WCI  24
HAYWARD        CLEAR     31  27  85 NE3       30.01R
SIREN          CLEAR     36  26  68 CALM      30.01R
CUMBERLAND     CLEAR     36  30  80 CALM      30.00S
RICE LAKE      CLEAR     37  33  86 CALM      30.02R
CHETEK         CLEAR     35  30  80 CALM      30.01R
LADYSMITH      CLEAR     35  31  85 CALM      30.01F
EAU CLAIRE     NOT AVBL
MENOMONIE      CLEAR     38  26  60 CALM      30.01R
NEW RICHMOND   CLEAR     42  26  52 CALM      30.01R
OSCEOLA        CLEAR     40  33  76 CALM      30.04R
$$

WIZ003>005-009-010-017-018-050800-
NORTH CENTRAL WISCONSIN

CITY           SKY/WX    TMP DP  RH WIND       PRES   REMARKS
MANITOWISH WTR CLEAR     30  30 100 CALM      29.98F FOG
ARBOR VITAE    CLEAR     32  29  89 CALM      29.99S
WOODRUFF       CLEAR     32  29  89 CALM      29.99S
RHINELANDER    CLEAR     34  30  85 CALM      29.99S
EAGLE RIVER    CLEAR     27  27 100 CALM      29.98S
LAND O LAKES   CLEAR     28  28  98 CALM      29.99F
PHILLIPS       CLEAR     32  31  98 CALM      29.99S
TOMAHAWK       CLEAR     30  28  94 CALM      30.00S
MEDFORD        CLEAR     35  30  84 N3        29.98S
MERRILL        CLEAR     33  32  94 CALM      30.00R
$$

WIZ029-030-035-036-043>047-050800-
CENTRAL WISCONSIN

CITY           SKY/WX    TMP DP  RH WIND       PRES   REMARKS
WAUSAU         CLEAR     41  32  70 CALM      29.97R
MOSINEE        CLEAR     37  32  81 N3        29.99S
MARSHFIELD     CLEAR     42  31  64 N6        29.97S
STEVENS POINT  CLEAR     33  29  86 CALM      29.99R
WAUPACA        CLEAR     41  32  70 N5        29.98S
WAUTOMA        CLEAR     39  32  76 N5        29.98S
WISC RAPIDS    CLEAR     38  30  73 N5        30.00R WCI  34
CAMP DOUGLAS   NOT AVBL
$$

WIZ011>013-019>022-031-037>040-048>050-050800-
NORTHEAST WISCONSIN

CITY           SKY/WX    TMP DP  RH WIND       PRES   REMARKS
ANTIGO         CLEAR     34  31  88 CALM      29.98S
SHAWANO        CLEAR     39  32  75 N6        29.98S WCI  35
OCONTO         CLEAR     37  32  84 N3        29.97S
STURGEON BAY   CLEAR     37  30  75 N12G18    29.98S WCI  30
GREEN BAY      CLEAR     37  31  78 N9        29.97S WCI  30
MANITOWOC      NOT AVBL
APPLETON       PTCLDY    36  30  80 N8        29.95S WCI  29
CLINTONVILLE   CLEAR     37  32  81 N3        29.98S
OSHKOSH        CLEAR     40  31  70 N12       29.96S WCI  33
$$

WIZ032>034-041-042-053>061-050800-
SOUTHWEST WISCONSIN

CITY           SKY/WX    TMP DP  RH WIND       PRES   REMARKS
LA CROSSE      CLEAR     48  31  51 NE3       29.99S
SPARTA         CLEAR     33  29  87 CALM      29.99F
VIROQUA        CLEAR     40  32  71 N6        29.98S
BOSCOBEL       CLEAR     39  33  79 NW3       29.98S
PRAIRIE DU CHI CLEAR     41  31  68 CALM      29.98S
PLATTEVILLE    CLEAR     42  34  75 N6        29.96R
$$

WIZ056-057-062-063-064-067-068-050800-
SOUTH CENTRAL WISCONSIN

CITY           SKY/WX    TMP DP  RH WIND       PRES   REMARKS
REEDSBURG      CLEAR     42  32  68 N5        29.97S
BARABOO/DELLS  CLEAR     42  32  67 CALM      29.97R
LONE ROCK      NOT AVBL
MINERAL POINT  CLEAR     41  32  70 N8        29.95S
MADISON        CLEAR     40  32  73 NE9       29.96R WCI  34
MIDDLETON      CLEAR     40  35  80 N6        29.97R
WATERTOWN      CLEAR     39  33  79 N7        29.94S WCI  34
MONROE         CLEAR     39  36  87 N7        29.94S WCI  34
JANESVILLE     CLEAR     43  34  70 N12       29.93S
$$

WIZ051-052-058>065-066-070>072-050800-
SOUTHEAST WISCONSIN

CITY           SKY/WX    TMP DP  RH WIND       PRES   REMARKS
MILWAUKEE      MOCLDY    42  33  70 N15G24    29.92S
WAUKESHA       CLEAR     36  32  87 N8        29.94S WCI  29
MILWAUKEE/TIMM CLOUDY    37  32  81 N9        29.94S WCI  31
RACINE         CLOUDY    42  33  70 N17G30    29.92F
BURLINGTON     CLEAR     36  32  85 N7        29.93R WCI  31
KENOSHA        CLOUDY    42  33  70 N12G25    29.91S
FOND DU LAC    CLEAR     41  32  70 N14       29.96S
SHEBOYGAN      PTCLDY    39  31  72 N8        29.94F WCI  33
WEST BEND      CLEAR     37  32  81 N7        29.94S WCI  32
JUNEAU         CLEAR     38  33  81 N10       29.95F WCI  32
$$

LSZ147-162-050800-
LAKE SUPERIOR

STATION/POSITION TIME  TEMP    WIND        PRES    WAVE
                       AIR SEA DIR/SP/G            HT/PER
                 (UTC) (F)     (DEG/KT/KT) (MB)    (FT/S)
W MID LAKE BUOY  0550   36 35  360/  4/  4 1017.4S   1/ 5
DEVILS ISLAND    0600   40      90/  4/  5 1017.3R
PORT WING        0540   35     130/  2/  4 1016.6R
SAXON HARBOR     0600   32     220/  3/  3 1015.9R
$$

LMZ867-665-643>646-050800-
LAKE MICHIGAN

STATION/POSITION TIME  TEMP    WIND        PRES    WAVE
                       AIR SEA DIR/SP/G            HT/PER
                 (UTC) (F)     (DEG/KT/KT) (MB)    (FT/S)
CHAMBERS ISLAND  0600   40     330/ 14/ 17 1014.6S
N MID LAKE BUOY  0550   38 38  340/ 14/ 17 1013.7R   3/ 5
NORTHPORT PIER   0622   40     340/ 14/ 18 1014.6R
ALGOMA LAKESHORE 0600          330/ 10/ 13   N/A
KEWAUNEE LAKESHO 0600   39     340/  6/ 11 1013.7R
SHEBOYGAN LAKESH 0600   42      10/ 20/ 22 1014.5R
PORT WASHINGTON  0640   41     330/  9/ 13 1014.6S
S MID LAKE BUOY  0550   41 40   20/ 25/ 31 1010.8R  10/ 8
KENOSHA   LAKESH 0600   43     360/ 29/ 34 1012.2S
$$

TC  - TEMPERATURE IN CELSIUS
VSB - VISIBILITY IN STATUTE MILES
WCI - WIND CHILL INDEX
HX  - HEAT INDEX




USA.gov is the U.S. government's official web portal to all federal, state and local government web resources and services.